Fredericton, New Brunswick

10:57 PM ADT on August 31, 2016 (GMT -0300)
Fredericton

Weather History for CYFC - October, 2012

Change the Weather History Date:

Sunday, October 7, 2012

  Actual Average Record
Temperature  
Mean Temperature 48 °F -  
Max Temperature 57 °F 53 °F 69 °F (2005)
Min Temperature 38 °F 33 °F 23 °F (1998)
Degree Days  
Heating Degree Days 18    
Moisture  
Dew Point 43 °F    
Average Humidity 74    
Maximum Humidity 100    
Minimum Humidity 40    
Precipitation  
Precipitation 0.01 in 0.13 in - ()
Sea Level Pressure  
Sea Level Pressure 29.89 in    
Wind  
Wind Speed 3 mph ()    
Max Wind Speed 12 mph    
Max Gust Speed 18 mph    
Visibility 5.6 miles    
Events Rain    
Averages and records for this station are not official NWS values.
T = Trace of Precipitation, MM = Missing Value Source: Averaged Metar Reports

Daily Weather History Graph

Daily Weather History Graph

Search for Another Location

Airport or City:

Trip Planner

Search our weather history database for the weather conditions in past years. The results will help you decide how hot, cold, wet, or windy it might be!

Date:

Astronomy

Oct. 07, 2012 Rise Set
Actual Time 7:32 AM ADT 6:54 PM ADT
Civil Twilight 7:03 AM ADT 7:23 PM ADT
Nautical Twilight 6:28 AM ADT 7:58 PM ADT
Astronomical Twilight 5:53 AM ADT 8:32 PM ADT
Moon 11:49 PM ADT (10/7) 2:20 PM ADT (10/7)
Length of Visible Light 12h 20m
Length of Day
11h 21m
Waning Gibbous, 57% of the Moon is Illuminated
Oct 7
Waning Gibbous
Oct 8
Last Quarter
Oct 15
New
Oct 22
First Quarter
Oct 29
Full

Hourly Weather History & Observations

Time (ADT) Temp. Windchill Dew Point Humidity Pressure Visibility Wind Dir Wind Speed Gust Speed Precip Events Conditions
12:00 AM 51.8 °F - - N/A% 29.73 in 9.0 mi WNW 3.5 mph - N/A Rain Light Rain
12:20 AM 51.8 °F - - N/A% 29.74 in 5.0 mi WNW 4.6 mph - N/A Rain Rain
12:24 AM 51.8 °F - - N/A% 29.74 in 6.0 mi West 3.5 mph - N/A Rain Light Rain
1:00 AM 51.8 °F - - N/A% 29.77 in 9.0 mi SSW 5.8 mph - N/A Rain Light Rain
1:10 AM 51.8 °F - - N/A% 29.77 in 9.0 mi SSW 4.6 mph - N/A   Overcast
2:00 AM 51.8 °F - - N/A% 29.78 in 9.0 mi WSW 3.5 mph - N/A   Overcast
3:00 AM 49 °F - - % 29.79 in 10 mi WNW 4.6 mph - -  
3:00 AM 48.2 °F - - N/A% 29.78 in 9.0 mi WNW 4.6 mph - N/A   Scattered Clouds
3:53 AM 46.4 °F 45.2 °F - N/A% 29.81 in 4.0 mi SW 3.5 mph - N/A   Haze
3:56 AM 44.6 °F 43.1 °F - N/A% 29.81 in 2.2 mi SW 3.5 mph - N/A   Clear
3:57 AM 44.6 °F 43.1 °F - N/A% 29.81 in 1.8 mi SW 3.5 mph - N/A   Clear
4:00 AM 44.6 °F 43.1 °F - N/A% 29.81 in 1.2 mi SW 3.5 mph - N/A   Clear
4:08 AM 44.6 °F 43.1 °F - N/A% 29.82 in 2.0 mi WSW 3.5 mph - N/A   Clear
4:10 AM 44.6 °F 43.1 °F - N/A% 29.82 in 1.5 mi WSW 3.5 mph - N/A   Clear
4:13 AM 44.6 °F 43.1 °F - N/A% 29.82 in 2.0 mi WSW 3.5 mph - N/A   Clear
4:20 AM 44.6 °F - - N/A% 29.82 in 3.0 mi SW 2.3 mph - N/A   Clear
4:22 AM 44.6 °F 43.1 °F - N/A% 29.83 in 2.5 mi WSW 3.5 mph - N/A   Clear
4:29 AM 44.6 °F 42.2 °F - N/A% 29.83 in 3.0 mi SW 4.6 mph - N/A   Clear
4:32 AM 44.6 °F 42.2 °F - N/A% 29.83 in 8.0 mi SW 4.6 mph - N/A   Clear
4:41 AM 44.6 °F 43.1 °F - N/A% 29.83 in 5.0 mi SW 3.5 mph - N/A   Haze
4:42 AM 42.8 °F 41.1 °F - N/A% 29.83 in 2.5 mi SW 3.5 mph - N/A   Clear
4:43 AM 42.8 °F 41.1 °F - N/A% 29.83 in 1.5 mi SW 3.5 mph - N/A   Clear
5:00 AM 42.8 °F - - N/A% 29.84 in 0.8 mi SW 2.3 mph - N/A   Clear
5:22 AM 42.8 °F 41.1 °F - N/A% 29.86 in 2.0 mi SW 3.5 mph - N/A   Clear
5:25 AM 42.8 °F - - N/A% 29.86 in 3.0 mi SW 2.3 mph - N/A   Clear
5:28 AM 42.8 °F 41.1 °F - N/A% 29.86 in 8.0 mi SW 3.5 mph - N/A   Clear
5:46 AM 42.8 °F - - N/A% 29.87 in 5.0 mi Calm Calm - N/A   Haze
5:59 AM 42.8 °F - - N/A% 29.88 in 9.0 mi Calm Calm - N/A   Clear
6:00 AM 42.8 °F - - N/A% 29.88 in 9.0 mi Calm Calm - N/A   Clear
6:04 AM 42.8 °F - - N/A% 29.88 in 4.0 mi Calm Calm - N/A   Haze
6:14 AM 42.8 °F - - N/A% 29.88 in 6.0 mi Calm Calm - N/A   Haze
6:18 AM 41.0 °F - - N/A% 29.89 in 5.0 mi Variable 2.3 mph - N/A   Haze
6:24 AM 41.0 °F - - N/A% 29.89 in 2.2 mi Variable 2.3 mph - N/A   Clear
6:25 AM 41.0 °F - - N/A% 29.89 in 1.8 mi Variable 2.3 mph - N/A   Clear
6:32 AM 41.0 °F - - N/A% 29.90 in 2.0 mi Variable 2.3 mph - N/A   Clear
6:33 AM 41.0 °F - - N/A% 29.89 in 3.0 mi Variable 2.3 mph - N/A   Clear
6:35 AM 42.8 °F - - N/A% 29.90 in 7.0 mi Calm Calm - N/A   Clear
6:52 AM 41.0 °F - - N/A% 29.90 in 5.0 mi Variable 2.3 mph - N/A   Haze
6:55 AM 41.0 °F - - N/A% 29.90 in 2.2 mi Calm Calm - N/A   Clear
6:59 AM 41.0 °F - - N/A% 29.90 in 1.5 mi Calm Calm - N/A   Clear
7:00 AM 41.0 °F - - N/A% 29.90 in 1.5 mi Variable 2.3 mph - N/A   Clear
7:11 AM 41.0 °F 39.0 °F - N/A% 29.90 in 2.2 mi South 3.5 mph - N/A   Clear
7:15 AM 41.0 °F - - N/A% 29.91 in 3.0 mi SSW 2.3 mph - N/A   Clear
7:18 AM 41.0 °F - - N/A% 29.91 in 7.0 mi SSW 2.3 mph - N/A   Clear
7:25 AM 39.2 °F 37.0 °F - N/A% 29.91 in 4.0 mi SSW 3.5 mph - N/A   Haze
7:29 AM 39.2 °F 35.9 °F - N/A% 29.91 in 2.2 mi SSW 4.6 mph - N/A   Clear
7:30 AM 39.2 °F 35.9 °F - N/A% 29.91 in 1.5 mi SSW 4.6 mph - N/A   Clear
7:45 AM 39.2 °F 35.0 °F - N/A% 29.91 in 2.0 mi SW 5.8 mph - N/A   Clear
7:47 AM 39.2 °F 34.2 °F - N/A% 29.91 in 4.0 mi SW 6.9 mph - N/A   Haze
7:48 AM 39.2 °F 34.2 °F - N/A% 29.91 in 7.0 mi SW 6.9 mph - N/A   Clear
8:00 AM 39.2 °F 34.2 °F - N/A% 29.92 in 9.0 mi WSW 6.9 mph - N/A   Clear
9:00 AM 45 °F - 45 °F 100% 29.95 in 10 mi WSW 6.9 mph - -  
9:00 AM 44.6 °F 40.7 °F 44.6 °F 100% 29.95 in 9.0 mi WSW 6.9 mph - N/A   Clear
10:00 AM 50.0 °F - 44.6 °F 82% 29.98 in 9.0 mi West 9.2 mph - N/A   Clear
11:00 AM 53.6 °F - 42.8 °F 67% 30.00 in 9.0 mi WSW 8.1 mph 18.4 mph N/A   Clear
12:00 PM 55.4 °F - 41.0 °F 58% 30.00 in 9.0 mi WNW 11.5 mph - N/A   Clear
1:00 PM 57.2 °F - 41.0 °F 55% 30.00 in 9.0 mi WSW 5.8 mph - N/A   Partly Cloudy
2:00 PM 55.4 °F - 41.0 °F 58% 29.99 in 9.0 mi West 5.8 mph - N/A   Partly Cloudy
3:00 PM 58 °F - 40 °F 40% 29.98 in 10 mi SW 6.9 mph - -  
3:00 PM 57.2 °F - 41.0 °F 55% 29.98 in 9.0 mi SSW 6.9 mph - N/A   Partly Cloudy
4:00 PM 55.4 °F - 41.0 °F 58% 29.99 in 9.0 mi SW 4.6 mph - N/A   Partly Cloudy
5:00 PM 55.4 °F - 41.0 °F 58% 30.00 in 9.0 mi SSW 8.1 mph - N/A   Mostly Cloudy
7:00 PM 50.0 °F - 44.6 °F 82% 30.03 in 9.0 mi SW 3.5 mph - N/A   Clear
8:00 PM 48.2 °F - 46.4 °F 93% 30.04 in 9.0 mi SSW 3.5 mph - N/A   Overcast
9:00 PM 47 °F - 45 °F 91% 30.04 in 10 mi SW 3.5 mph - -   Overcast
9:00 PM 48.2 °F - 44.6 °F 87% 30.04 in 9.0 mi SW 3.5 mph - N/A   Overcast
10:00 PM 46.4 °F - 46.4 °F 100% 30.03 in 9.0 mi South 2.3 mph - N/A   Overcast
11:00 PM 44.6 °F - - N/A% 30.03 in 9.0 mi SSE 2.3 mph - N/A   Mostly Cloudy